Stations météo

réclame
Mon MeteoGroup
Southampton oceanography centre, Grande-Bretagne (99079): Température de l'air & dewpoint: 09.12.2019 14:00:00 - 15.12.2019 14:00:00 (GMT)Southampton oceanography centre, Grande-Bretagne (99079): Vitesse du vent & gusts: 09.12.2019 14:00:00 - 15.12.2019 14:00:00 (GMT)Southampton oceanography centre, Grande-Bretagne (99079): Direction du vent: 09.12.2019 14:00:00 - 15.12.2019 14:00:00 (GMT)
Date & Time tt [°C] td [°C] ff [km/h] ff [knt] fx [km/h] fx [knt] dd
15.12.2019 14:00:00 10,2 2,5 41 22 57 31 WSW
15.12.2019 13:00:00 10,0 4,7 39 21 54 29 SW
15.12.2019 12:00:00 9,7 4,3 28 15 - - SW
15.12.2019 11:00:00 8,9 4,3 31 17 - - SW
15.12.2019 10:00:00 7,8 4,6 26 14 - - WSW
15.12.2019 09:00:00 7,7 4,6 31 17 57 31 SW
15.12.2019 08:00:00 7,9 3,4 44 24 61 33 SW
15.12.2019 07:00:00 7,4 3,5 26 14 52 28 SW
15.12.2019 06:00:00 6,9 2,7 29 16 48 26 WSW
15.12.2019 05:00:00 6,9 2,2 37 20 50 27 WSW
15.12.2019 04:00:00 6,3 2,3 28 15 48 26 WSW
15.12.2019 03:00:00 6,5 2,3 34 18 48 26 WSW
15.12.2019 02:00:00 6,9 3,6 31 17 70 38 WSW
15.12.2019 01:00:00 6,9 5,1 21 11 - - SW
15.12.2019 00:00:00 7,3 4,7 22 12 61 33 WSW
14.12.2019 23:00:00 7,7 6,6 29 16 68 37 W
14.12.2019 22:00:00 7,6 6,4 24 13 81 44 SW
14.12.2019 21:00:00 10,1 7,1 46 25 72 39 SSW
14.12.2019 20:00:00 10,3 5,7 37 20 63 34 S
14.12.2019 19:00:00 9,6 5,1 28 15 50 27 S
14.12.2019 18:00:00 8,6 3,2 21 11 - - SSW
14.12.2019 17:00:00 7,9 1,2 16 9 - - S
14.12.2019 16:00:00 8,2 0,8 22 12 - - WSW
14.12.2019 15:00:00 8,7 0,7 22 12 48 26 SW
14.12.2019 14:00:00 9,6 0,4 28 15 52 28 WSW
14.12.2019 13:00:00 9,3 0,8 26 14 59 32 W
14.12.2019 12:00:00 8,9 1,0 34 18 67 36 W
14.12.2019 11:00:00 7,8 2,0 41 22 68 37 W
14.12.2019 10:00:00 8,6 3,5 34 18 63 34 WSW
14.12.2019 09:00:00 7,2 3,9 18 10 - - SW
14.12.2019 08:00:00 6,9 2,6 13 7 - - SW
14.12.2019 07:00:00 7,2 2,2 24 13 - - SW
14.12.2019 06:00:00 6,7 1,8 22 12 48 26 W
14.12.2019 05:00:00 6,9 3,3 28 15 50 27 W
14.12.2019 04:00:00 6,5 3,9 29 16 52 28 W
14.12.2019 03:00:00 6,4 5,0 22 12 - - WSW
14.12.2019 02:00:00 6,1 4,1 28 15 - - W
14.12.2019 01:00:00 5,9 4,8 15 8 - - NW
14.12.2019 00:00:00 6,2 5,4 24 13 - - NNW
13.12.2019 23:00:00 7,9 7,2 9 5 - - W
13.12.2019 22:00:00 6,6 5,9 8 4 - - E
13.12.2019 21:00:00 6,9 5,5 5 3 - - S
13.12.2019 20:00:00 7,6 4,5 18 10 - - WSW
13.12.2019 19:00:00 7,7 2,5 13 7 - - SSW
13.12.2019 18:00:00 7,2 1,5 22 12 - - SW
13.12.2019 17:00:00 7,5 1,2 22 12 - - SW
13.12.2019 16:00:00 8,3 1,2 26 14 57 31 W
13.12.2019 15:00:00 9,0 1,9 31 17 55 30 W
13.12.2019 14:00:00 9,7 2,7 26 14 55 30 W
13.12.2019 13:00:00 9,0 2,2 35 19 59 32 W
13.12.2019 12:00:00 8,7 2,1 34 18 63 34 W
13.12.2019 11:00:00 8,8 2,3 31 17 55 30 WNW
13.12.2019 10:00:00 8,2 1,8 34 18 61 33 WNW
13.12.2019 09:00:00 7,9 2,0 29 16 63 34 WNW
13.12.2019 08:00:00 7,9 1,7 35 19 68 37 WNW
13.12.2019 07:00:00 7,7 1,9 35 19 74 40 WNW
13.12.2019 06:00:00 7,8 2,8 39 21 68 37 W
13.12.2019 05:00:00 7,6 2,9 39 21 67 36 WNW
13.12.2019 04:00:00 7,7 2,7 34 18 61 33 WNW
13.12.2019 03:00:00 7,8 3,2 31 17 52 28 WNW
13.12.2019 02:00:00 8,0 3,7 39 21 59 32 W
13.12.2019 01:00:00 7,9 5,1 31 17 55 30 W
13.12.2019 00:00:00 8,3 5,7 34 18 57 31 W
12.12.2019 23:00:00 9,0 7,7 26 14 - - WSW
12.12.2019 22:00:00 8,7 7,6 18 10 - - SW
12.12.2019 21:00:00 8,9 6,9 21 11 - - SW
12.12.2019 20:00:00 8,4 6,6 28 15 - - WSW
12.12.2019 19:00:00 8,3 6,7 21 11 - - WSW
12.12.2019 18:00:00 9,0 7,3 21 11 46 25 WSW
12.12.2019 17:00:00 9,5 7,0 28 15 50 27 W
12.12.2019 16:00:00 9,2 8,5 18 10 - - W
12.12.2019 15:00:00 9,3 8,5 28 15 - - S
12.12.2019 14:00:00 9,1 8,1 24 13 54 29 S
12.12.2019 13:00:00 9,9 8,6 39 21 65 35 S
12.12.2019 12:00:00 9,7 8,9 35 19 63 34 S
12.12.2019 11:00:00 9,8 9,0 37 20 59 32 SSW
12.12.2019 10:00:00 8,1 7,5 29 16 50 27 S
12.12.2019 09:00:00 8,2 7,3 29 16 - - S
12.12.2019 08:00:00 7,8 6,5 26 14 - - S
12.12.2019 07:00:00 7,1 5,3 16 9 - - S
12.12.2019 06:00:00 6,5 3,5 13 7 - - SSE
12.12.2019 05:00:00 5,9 2,9 9 5 - - S
12.12.2019 04:00:00 4,8 2,6 9 5 - - SSW
12.12.2019 03:00:00 3,5 1,3 4 2 - - WSW
12.12.2019 02:00:00 3,3 1,4 8 4 - - SW
12.12.2019 01:00:00 2,8 1,2 9 5 - - W
12.12.2019 00:00:00 2,4 1,1 5 3 - - WSW
11.12.2019 23:00:00 2,7 1,5 15 8 - - WSW
11.12.2019 22:00:00 3,2 1,7 9 5 - - WSW
11.12.2019 21:00:00 3,8 2,1 16 9 - - W
11.12.2019 20:00:00 4,2 2,6 13 7 - - W
11.12.2019 19:00:00 4,6 2,7 11 6 - - W
11.12.2019 18:00:00 5,3 3,3 11 6 - - W
11.12.2019 17:00:00 6,8 3,5 11 6 - - W
11.12.2019 16:00:00 6,7 3,2 15 8 - - W
11.12.2019 15:00:00 7,4 4,2 16 9 - - W
11.12.2019 14:00:00 7,7 5,2 15 8 - - SW
11.12.2019 13:00:00 7,5 4,9 15 8 - - SW
11.12.2019 12:00:00 8,7 3,8 16 9 - - SSW
11.12.2019 11:00:00 8,3 5,5 13 7 - - SSW
11.12.2019 10:00:00 7,5 5,1 15 8 - - SSW
11.12.2019 09:00:00 6,9 4,4 9 5 - - SW
11.12.2019 08:00:00 6,2 4,1 13 7 - - SW
11.12.2019 07:00:00 6,3 4,1 13 7 - - WSW
11.12.2019 06:00:00 4,9 3,2 5 3 - - W
11.12.2019 05:00:00 5,3 3,2 4 2 - - SSW
11.12.2019 04:00:00 5,9 3,5 16 9 - - SW
11.12.2019 03:00:00 6,1 3,4 11 6 - - SW
11.12.2019 02:00:00 6,6 3,7 16 9 - - WSW
11.12.2019 01:00:00 6,9 4,1 22 12 - - WSW
11.12.2019 00:00:00 7,7 4,8 18 10 - - WSW
10.12.2019 23:00:00 8,2 5,8 13 7 - - WSW
10.12.2019 22:00:00 8,6 6,3 16 9 - - SW
10.12.2019 21:00:00 8,9 6,5 24 13 - - W
10.12.2019 20:00:00 9,7 7,5 28 15 85 46 W
10.12.2019 19:00:00 11,9 11,1 55 30 93 50 SW
10.12.2019 18:00:00 11,6 10,7 48 26 85 46 SSW
10.12.2019 17:00:00 11,4 10,3 48 26 80 43 SSW
10.12.2019 16:00:00 11,1 9,9 48 26 78 42 SSW
10.12.2019 15:00:00 10,5 9,3 46 25 83 45 SSW
10.12.2019 14:00:00 10,6 9,2 46 25 70 38 SSW
10.12.2019 13:00:00 10,2 9,0 35 19 61 33 SSW
10.12.2019 12:00:00 9,6 8,8 39 21 59 32 SSW
10.12.2019 11:00:00 9,6 8,3 35 19 55 30 SSW
10.12.2019 10:00:00 10,0 8,0 35 19 61 33 SSW
10.12.2019 09:00:00 10,4 6,4 39 21 59 32 SSW
10.12.2019 08:00:00 10,2 6,3 35 19 57 31 SSW
10.12.2019 07:00:00 9,8 5,7 29 16 - - SSW
10.12.2019 06:00:00 9,1 5,6 16 9 - - S
10.12.2019 05:00:00 7,3 5,0 13 7 - - SSE
10.12.2019 04:00:00 6,2 4,0 13 7 - - SE
10.12.2019 03:00:00 4,9 3,4 11 6 - - ESE
10.12.2019 02:00:00 3,9 2,2 5 3 - - SE
10.12.2019 01:00:00 3,9 1,9 4 2 - - SSE
10.12.2019 00:00:00 3,5 1,4 5 3 - - WSW
09.12.2019 23:00:00 3,8 1,3 4 2 - - SW
09.12.2019 22:00:00 4,2 1,7 5 3 - - WSW
09.12.2019 21:00:00 4,6 1,6 11 6 - - WSW
09.12.2019 20:00:00 5,8 1,6 8 4 - - W
09.12.2019 19:00:00 6,5 1,4 11 6 - - W
09.12.2019 18:00:00 7,3 1,5 11 6 - - NW
09.12.2019 17:00:00 8,0 1,4 15 8 - - NW
09.12.2019 16:00:00 8,8 1,2 16 9 46 25 NW
09.12.2019 15:00:00 9,8 1,1 26 14 59 32 NW
09.12.2019 14:00:00 10,1 1,2 26 14 61 33 NW

tt = Température de l'air
td = dewpoint
ff = Vitesse du vent
fx = gusts
dd = Direction du vent

stations d'obs. à proximité